Location: Albuquerque Trailhead
(34.7934°N, 106.3736°W)
Time: 01:54:44
(UTC+00:00)

OAO 3 Rocket - Pass Details

Date: 20 June 2021
Orbit: 628 x 683 km, 35.0° (Epoch: 27 July)

Event Time Altitude Azimuth Distance (km) Brightness Sun altitude
Exits shadow 10:00:35 32° 182° (S) 1,098 3.9 -18.7°
Maximum altitude 10:01:33 35° 155° (SSE) 1,025 3.9 -18.6°
Drops below altitude 10° 10:05:54 10° 90° (E) 2,047 6.3 -18.0°
Sets 10:08:26 0° 81° (E) 2,969 7.4 -17.6°
